Content
SEND FEEDBACK

Daily
Averages
Monthly
Summary
United States of America

ARTEMUS, KENTUCKY


Home > North America > United States > Kentucky
Elevation: 1104 feet     Latitude: 36 52N     Longitude: 083 52W

WEATHER
 
SELECT A DAY
Number of Records: 404,222;   Date Range: 5/16/05 - 8/18/14
 
SHARE

PRINT THIS DATA

[ ← Previous Day ]
WEATHER ALMANAC - JANUARY 31, 2013
[ Next Day → ]
[ °C ]   °F
Weather ElementAverageHighLow
Temperature38 °F42.8 °F (1:15 pm)33.8 °F (3:35 am)
Dewpoint26.3 °F35.6 °F (11:55 pm)21.2 °F (5:15 am)
Humidity63.7 %93 % (11:55 pm)46 % (2:15 pm)
Barometer29.94 in30.01 in (10:15 am)29.76 in (12:35 am)
Wind Speed8.1 mph21.9 mph (12:35 am)
Wind Gust34.5 mph (12:35 am)
Weather ElementAverage
Visibility9.8 mi
Wind DirectionWSW (243.8 °)

Weather ElementTotal
Precipitation---
Heating Degree Days26.7 (Base 65)
Averaged from 68 records on January 31, 2013
WEATHER CONDITIONS BREAKOUT
WIND DIRECTION BREAKOUT
WEATHER BY HOUR - JANUARY 31, 2013
[ °C ]   °F
Local TimeTemperatureDewpointHumidityBarometerVisibilityWind DirectionWind SpeedGust SpeedPrecipitationEventsConditions
12:35 AM37.4 °F30.2 °F75 %29.76 in10.0 miWNW (300°)21.9 mph34.5 mphOvercast
12:55 AM35.6 °F28.4 °F75 %29.76 in10.0 miWest (280°)16.1 mph26.5 mphOvercast
1:15 AM35.6 °F28.4 °F75 %29.78 in10.0 miWNW (290°)12.7 mph29.9 mphOvercast
1:35 AM35.6 °F28.4 °F75 %29.79 in10.0 miNE (50°)12.7 mph18.4 mphOvercast
2:15 AM35.6 °F26.6 °F70 %29.82 in10.0 miNW (310°)12.7 mph18.4 mphSnowLight Snow
2:35 AM35.6 °F26.6 °F70 %29.83 in10.0 miWNW (290°)11.5 mph19.6 mphOvercast
2:55 AM35.6 °F26.6 °F70 %29.84 in10.0 miNW (310°)11.5 mph17.3 mphOvercast
3:15 AM35.6 °F26.6 °F70 %29.84 in10.0 miWNW (300°)10.4 mph20.7 mphOvercast
3:35 AM33.8 °F26.6 °F75 %29.85 in10.0 miWest (270°)8.1 mph19.6 mphSnowLight Snow
3:55 AM33.8 °F26.6 °F75 %29.86 in10.0 miWNW (290°)8.1 mph20.7 mphOvercast
4:15 AM33.8 °F24.8 °F70 %29.86 in10.0 miWest (270°)5.8 mphOvercast
4:35 AM33.8 °F24.8 °F70 %29.87 in10.0 miWest (260°)10.4 mph25.3 mphOvercast
4:55 AM33.8 °F24.8 °F70 %29.86 in10.0 miWNW (300°)8.1 mphOvercast
5:15 AM33.8 °F21.2 °F60 %29.88 in10.0 miWest (280°)13.8 mph19.6 mphOvercast
5:35 AM33.8 °F23.0 °F65 %29.89 in10.0 miWest (280°)4.6 mphOvercast
6:15 AM33.8 °F24.8 °F70 %29.90 in10.0 miWest (280°)4.6 mphOvercast
6:35 AM33.8 °F26.6 °F75 %29.90 in10.0 miNW (310°)5.8 mphSnowLight Snow
6:55 AM33.8 °F26.6 °F75 %29.92 in10.0 miWest (260°)4.6 mphOvercast
7:15 AM33.8 °F26.6 °F75 %29.93 in10.0 miCalmSnowLight Snow
7:35 AM33.8 °F24.8 °F70 %29.95 in10.0 miWNW (290°)4.6 mphOvercast
7:55 AM33.8 °F24.8 °F70 %29.96 in10.0 miWest (270°)4.6 mphOvercast
8:15 AM33.8 °F24.8 °F70 %29.97 in10.0 miNW (310°)8.1 mphOvercast
8:35 AM33.8 °F23.0 °F65 %29.98 in10.0 miWest (280°)12.7 mph19.6 mphOvercast
8:55 AM33.8 °F23.0 °F65 %29.99 in10.0 miWNW (290°)8.1 mphOvercast
9:15 AM33.8 °F24.8 °F70 %29.99 in10.0 miWNW (290°)4.6 mphOvercast
9:35 AM33.8 °F24.8 °F70 %30.00 in10.0 miWest (270°)5.8 mphSnowLight Snow
9:55 AM35.6 °F24.8 °F65 %30.00 in10.0 miWSW (250°)6.9 mphOvercast
10:15 AM35.6 °F24.8 °F65 %30.01 in10.0 miWSW (240°)9.2 mphSnowLight Snow
10:35 AM35.6 °F26.6 °F70 %30.01 in5.0 miWSW (250°)9.2 mph17.3 mphSnowLight Snow
10:55 AM35.6 °F26.6 °F70 %30.01 in4.0 miWSW (240°)6.9 mphSnowLight Snow
11:15 AM35.6 °F28.4 °F75 %30.01 in10.0 miWest (280°)9.2 mphSnowLight Snow
11:35 AM35.6 °F26.6 °F70 %30.01 in10.0 miWest (280°)11.5 mph18.4 mphMostly Cloudy
11:55 AM39.2 °F24.8 °F56 %30.00 in10.0 miWest (270°)13.8 mph18.4 mphMostly Cloudy
12:15 PM39.2 °F24.8 °F56 %30.00 in10.0 miWNW (300°)12.7 mph21.9 mphOvercast
12:35 PM41.0 °F26.6 °F57 %30.00 in10.0 miWNW (290°)12.7 mph20.7 mphMostly Cloudy
12:55 PM41.0 °F24.8 °F53 %29.99 in10.0 miWNW (300°)18.4 mph29.9 mphScattered Clouds
1:15 PM42.8 °F24.8 °F49 %29.98 in10.0 miWest (270°)8.1 mphScattered Clouds
1:35 PM42.8 °F24.8 °F49 %29.98 in10.0 miWest (260°)6.9 mph18.4 mphScattered Clouds
1:55 PM42.8 °F24.8 °F49 %29.99 in10.0 miNW (310°)13.8 mph20.7 mphScattered Clouds
2:15 PM42.8 °F23.0 °F46 %29.97 in10.0 miSW (230°)8.1 mph16.1 mphScattered Clouds
2:35 PM42.8 °F24.8 °F49 %29.98 in10.0 miWest (280°)8.1 mphScattered Clouds
2:55 PM42.8 °F24.8 °F49 %29.98 in10.0 miWSW (240°)3.5 mphMostly Cloudy
3:15 PM42.8 °F24.8 °F49 %29.98 in10.0 miWSW (250°)8.1 mphMostly Cloudy
3:35 PM42.8 °F24.8 °F49 %29.98 in10.0 miWSW (240°)6.9 mphOvercast
3:55 PM41.0 °F24.8 °F53 %29.99 in10.0 miWSW (250°)4.6 mphOvercast
4:15 PM41.0 °F24.8 °F53 %29.98 in10.0 miSW (230°)8.1 mphOvercast
4:35 PM41.0 °F24.8 °F53 %29.98 in10.0 miWSW (250°)3.5 mphOvercast
4:55 PM39.2 °F24.8 °F56 %29.98 in10.0 miWest (270°)6.9 mphMostly Cloudy
5:15 PM39.2 °F24.8 °F56 %29.98 in10.0 miWSW (240°)3.5 mphOvercast
5:35 PM39.2 °F26.6 °F61 %29.98 in10.0 miCalmOvercast
5:55 PM39.2 °F24.8 °F56 %29.98 in10.0 miCalmOvercast
6:15 PM39.2 °F24.8 °F56 %29.99 in10.0 miWSW (240°)5.8 mphOvercast
6:35 PM39.2 °F24.8 °F56 %29.99 in10.0 miWSW (240°)3.5 mphOvercast
7:15 PM39.2 °F24.8 °F56 %29.98 in10.0 miSW (230°)6.9 mphOvercast
7:35 PM39.2 °F26.6 °F61 %29.98 in10.0 miSW (230°)6.9 mphOvercast
7:55 PM39.2 °F26.6 °F61 %29.98 in10.0 miCalmOvercast
8:15 PM39.2 °F26.6 °F61 %29.97 in10.0 miSW (230°)5.8 mphOvercast
8:35 PM41.0 °F26.6 °F57 %29.96 in10.0 miWSW (250°)8.1 mphOvercast
8:55 PM41.0 °F28.4 °F61 %29.96 in10.0 miWSW (250°)5.8 mph16.1 mphOvercast
9:15 PM42.8 °F28.4 °F57 %29.95 in10.0 miSW (220°)9.2 mphOvercast
9:35 PM42.8 °F28.4 °F57 %29.95 in10.0 miSW (220°)6.9 mphOvercast
9:55 PM42.8 °F28.4 °F57 %29.94 in10.0 miSW (220°)4.6 mphOvercast
10:15 PM42.8 °F28.4 °F57 %29.94 in10.0 miCalmOvercast
10:35 PM42.8 °F28.4 °F57 %29.93 in10.0 miWest (260°)12.7 mph24.2 mphOvercast
10:55 PM42.8 °F32.0 °F66 %29.95 in10.0 miWest (260°)15.0 mph21.9 mphLight Drizzle
11:15 PM39.2 °F33.8 °F81 %29.96 in10.0 miWest (260°)12.7 mph18.4 mphRainLight Rain
11:35 PM39.2 °F33.8 °F81 %29.95 in10.0 miWest (270°)6.9 mph21.9 mphRainLight Rain
11:55 PM37.4 °F35.6 °F93 %29.96 in5.0 miWSW (250°)4.6 mphRainRain
Hourly data recorded from K1A6, located miles away from Artemus, Kentucky







STORIES FROM OUR PARTNERS